星链-3141 (STARLINK-3141 )

导读

STARLINK-3141是美国太空探索技术公司(SpaceX)星链星座的成员,于2021年11月13日发射升空。它运行在近地轨道,是星链全球卫星互联网计划的一部分,旨在为全球偏远、网络覆盖不足地区提供高速宽带服务,助力实现全球无缝网络覆盖,推动了低轨卫星互联网技术的商业化发展。

Basic Information
目录编号:
49459
目录名称:
STARLINK-3141
国际标识:
2021-104BD
轨道中心:
EARTH
卫星名称:
星链-3141
卫星全名:
星链-3141 (STARLINK-3141 )
卫星状态:
在轨 (已飞行1763 天)
发射日期:
2021-11-13 UTC
国别 :
美国 (US)
星等 :
--
This satellite is enrolled in the Space Conjunction Data Service (SCDS) and the current flight risk assessment level is: No High Risk
Orbit Information
数据来源 国际轨道数据
星历时间: 2026-09-11T08:06:57+0800
16小时前
查看轨道信息
半长轴: 6837.88km
偏心率: 0.0001087
轨道倾角: 53.160°
近地点辐角 91.676°
升交点赤经 96.911°
平近点角 268.437°
近地点: 458.999km
远地点: 460.487km
周期: 93.787分钟
每日圈数: 15.353967
Detailed Information
固有亮度:
5
最大亮度:
2.5
卫星平台:
Starlink v1.5
覆盖范围:
全球
运营商:
太空探索技术公司
运营商所在国:
美国
制造商(研发单位):
太空探索技术公司
制造商所在国:
美国
使用方式:
暂无
Satellite Introduction
星链(Starlink)计划是由太空探索技术公司(SpaceX)提出的一个巨型低轨卫星互联网星座项目,计划在2019年至2024年间在太空搭建由约1.2万颗卫星组成的“星链”网络,其中1584颗将部署在地球上空550千米处的近地轨道,并从2020年开始工作。该卫星仍在工作。
2D Orbit Map
3D Orbit Map
Orbit Altitude Analysis Chart
Orbit Inclination Analysis Chart
Orbit Comprehensive Analysis Chart
View Comprehensive Chart
Conjunction Data List
Event ID Objects TCA Miss Dist (km) Collision Risk Probability Collision Risk Index (CRI) Action
CDM_260911-214704-945906-855621
2026-09-11T
21:47:56+0000
2.180 km
极远距离
1.895968E-6 低风险 0.41
CDM_260913-083404-945906-287121
2026-09-13T
08:34:03+0000
2.251 km
极远距离
1.712509E-6 低风险 0.4
CDM_260911-155004-945906-584721
2026-09-11T
15:50:23+0000
2.625 km
极远距离
1.417096E-6 低风险 0.38
CDM_260912-121804-945906-521821
2026-09-12T
12:18:20+0000
2.455 km
极远距离
1.31135E-6 低风险 0.37
CDM_260912-181504-945906-338421
2026-09-12T
18:15:27+0000
2.974 km
极远距离
1.210366E-6 低风险 0.37
CDM_260913-210204-945906-427821
2026-09-13T
21:02:12+0000
2.919 km
极远距离
1.153526E-6 低风险 0.36
CDM_260913-045804-945906-575621
2026-09-13T
04:58:54+0000
2.873 km
极远距离
1.056725E-6 低风险 0.35
CDM_260913-203404-945906-015521
2026-09-13T
20:34:39+0000
2.781 km
极远距离
1.023135E-6 低风险 0.35
CDM_260913-001704-945906-938121
2026-09-13T
00:17:13+0000
2.913 km
极远距离
1.017829E-6 低风险 0.35
CDM_260912-184604-945906-921021
2026-09-12T
18:46:12+0000
2.687 km
极远距离
9.446615E-7 极低风险 0.35
Miss Distance Evolution Trend with All Objects
Collision Probability Evolution Trend with All Objects